Regional Weather Roundup
Issued by NWS Midland/Odessa, TX

Skip options and go directly to product.
Home | Oldest Version | Previous Version | Current Version | All | Graphics & Text | Save Text | Print | Product List | Glossary On

Skip product version selection by date and time.   
222
ASUS44 KMAF 311802
RWRMAF
MIDLAND AREA WEATHER ROUNDUP
NATIONAL WEATHER SERVICE MIDLAND TX
100 PM CDT FRI OCT 31 2014

...IN SOUTHWEST TEXAS AND SOUTHEAST NEW MEXICO...

CITY           SKY/WX    TMP DP  RH WIND       PRES   REMARKS
ALPINE         SUNNY     67  39  36 SE14      30.45F
ANDREWS        FAIR      62  33  33 E16       30.42F
ARTESIA        NOT AVBL
BIG SPRING     SUNNY     65  34  31 NE15G23   30.43F
CARLSBAD       SUNNY     65  37  35 SE12      30.40F
DRYDEN           N/A     72  35  25 E14       30.34
FORT STOCKTON  PTSUNNY   68  32  26 E13       30.39F
GUAD PASS      NOT AVBL
HOBBS          SUNNY     63  32  31 E10G18    30.44S
MARFA          MOSUNNY   64  46  52 E13G20    30.42F
MIDLAND AIRPK  SUNNY     65  33  30 E12G18    30.43S
MIDLAND INTL   SUNNY     66  34  30 E14       30.40F
ODESSA         SUNNY     66  31  27 E14G23    30.41F
PECOS          MOSUNNY   69  36  29 SE14      30.39F
PRESIDIO       FAIR      73  51  45 NE14G21   30.31F
SEMINOLE       SUNNY     62  33  33 E13       30.44F
SNYDER         SUNNY     60  36  40 NE10      30.43F
WINK           PTSUNNY   69  32  25 SE10      30.38F
$$
...OTHER STATIONS IN TEXAS...

CITY           SKY/WX    TMP DP  RH WIND       PRES   REMARKS
ABILENE        SUNNY     66  33  29 NE12      30.40F
AMARILLO       SUNNY     56  30  37 E9        30.46F
AUSTIN         MOSUNNY   74  43  32 N22       30.27F
BROWNSVILLE    CLOUDY    72  70  93 N9        30.17R
CORPUS CHRISTI CLOUDY    73  61  65 N13       30.20F
DALLAS FTW     SUNNY     65  41  41 N18       30.33F
DEL RIO        PTSUNNY   79  42  26 E8        30.29F
EL PASO        MOSUNNY   69  39  33 E17G23    30.31F
HOUSTON INT    MOSUNNY   77  47  34 NW16      30.19F
LUBBOCK        MOSUNNY   62  33  33 SE14      30.43F
SAN ANGELO     SUNNY     70  35  27 NE12G18   30.38F
SAN ANTONIO    MOSUNNY   77  40  26 NE14G23   30.27F
WACO           SUNNY     69  41  36 N15G24    30.31F
WICHITA FALLS  NOT AVBL
$$
...OTHER LOCATIONS IN NEW MEXICO...

CITY           SKY/WX    TMP DP  RH WIND       PRES   REMARKS
ALAMAGORDO     NOT AVBL
ALBUQUERQUE    PTSUNNY   62  28  27 SW7       30.36F
CANNON AFB     SUNNY     56  31  38 SE8       30.45F
CLOVIS         SUNNY     57  30  35 SE13      30.47F
HOLLOMAN AFB   MOSUNNY   67  37  32 S2        30.31F
ROSWELL        MOSUNNY   64  33  31 S15       30.42F
RUIDOSO        SUNNY     55  30  38 SE17      30.47F
SANTA FE       MOSUNNY   58  27  30 SE17G25   30.40F
TRUTH OR CONSE PTSUNNY   64  35  34 VRB6      30.33F
TUCUMCARI      MOSUNNY   57  29  34 VRB3      30.43F
$$

USA.gov is the U.S. government's official web portal to all federal, state and local government web resources and services.